Погода в Горонтало

Индонезия     0°34′44″N   123°01′27″E
темп.,
°C
ветер,
м/с
пор.,
м/с
влажн.,
%
обл.,
%
осадки,
мм/ч
давл.,
гПа
погр.,
м
2 марта, вт
вт223:00+24с2284100 0.0 1012131
02:00+23с2287100 0.2 101091
05:00+23с228993 0.0 101082
08:00+27с137990 0.0 1012348
11:00+32зсз255690 0.0 10121293
14:00+32ссз365595 0.3 10091173
17:00+28с2573100 0.7 1009326
20:00+25св1186100 1.1 1011111
3 марта, ср
ср323:00+24с1187100 0.0 101259
02:00+23ссв229092 0.0 100962
05:00+22с129160 0.0 100957
08:00+27с127459 0.0 1012240
11:00+30ю225888 0.0 1011905
14:00+29ю126791 0.8 1008793
17:00+27ююв1281100 0.6 1008247
20:00+25с1289100 0.8 101166
4 марта, чт
чт423:00+23ссв229142 0.0 101262
02:00+21с229138 0.0 101064
05:00+21с228948 0.0 101169
08:00+24с227558 0.0 1013152
11:00+32ююз124076 0.0 10121152
14:00+32ююз135071 0.1 10091132
17:00+28зюз027239 0.4 1009328
20:00+24с228763 0.5 1011110
5 марта, пт
пт523:00+23с229090 0.0 101180
02:00+22с129081 0.0 101059
05:00+22с229140 0.0 101060
08:00+26с127624 0.0 1012252
11:00+32зюз135521 0.1 10121219
14:00+28сз137949 2.4 1009803
17:00+27с4881100 1.3 1009564
20:00+24с3588100 1.4 1011225
6 марта, сб
сб623:00+22с2489100 0.0 1012176
02:00+23с239394 0.0 1010171
05:00+22с239466 0.0 1010148
08:00+24с228776 0.0 1012157
11:00+26сз1275100 0.0 1011288
14:00+26юз1276100 0.0 1009256
17:00+26с1279100 0.0 1010207
20:00+24с2286100 0.0 1011143